| time (UTC) | temp C | wind direction | speed KPH | gust KPH | rain 1hr cm | rain 24hr cm | rain mn cm | humidity % | barometer mb |
| 20260506002619 | 18 | 237 | 3.2 | 6.4 | 0.00 | 0.00 | 0.23 | 68 | 1010.7 |
| 20260506002117 | 18 | 260 | 4.8 | 6.4 | 0.00 | 0.00 | 0.23 | 68 | 1010.7 |
| 20260506001617 | 18 | 259 | 1.6 | 3.2 | 0.00 | 0.00 | 0.23 | 68 | 1010.7 |
| 20260506001117 | 18 | 259 | 0.0 | 1.6 | 0.00 | 0.00 | 0.23 | 68 | 1010.6 |
| 20260506000617 | 18 | 224 | 3.2 | 3.2 | 0.00 | 0.00 | 0.23 | 68 | 1010.6 |
| 20260506000118 | 19 | 252 | 3.2 | 3.2 | 0.00 | 0.00 | 0.23 | 67 | 1010.6 |
| 20260505235620 | 19 | 263 | 1.6 | 3.2 | 0.00 | 0.00 | 0.23 | 67 | 1010.5 |
| 20260505235118 | 19 | 290 | 3.2 | 4.8 | 0.00 | 0.00 | 0.23 | 67 | 1010.4 |
| 20260505234617 | 19 | 291 | 4.8 | 8.0 | 0.00 | 0.00 | 0.23 | 67 | 1010.3 |
| 20260505234117 | 19 | 305 | 4.8 | 8.0 | 0.00 | 0.00 | 0.23 | 66 | 1010.2 |
| 20260505233618 | 19 | 287 | 6.4 | 9.7 | 0.00 | 0.00 | 0.23 | 67 | 1010.3 |
| 20260505233118 | 19 | 294 | 3.2 | 6.4 | 0.00 | 0.00 | 0.23 | 67 | 1010.3 |
| 20260505232617 | 19 | 310 | 4.8 | 8.0 | 0.00 | 0.00 | 0.23 | 66 | 1010.2 |
| 20260505232118 | 19 | 304 | 6.4 | 11.3 | 0.00 | 0.00 | 0.23 | 66 | 1010.2 |
| 20260505231617 | 19 | 301 | 1.6 | 3.2 | 0.00 | 0.00 | 0.23 | 66 | 1010.2 |
| 20260505231118 | 19 | 316 | 4.8 | 8.0 | 0.00 | 0.00 | 0.23 | 65 | 1010.2 |
| 20260505230617 | 19 | 321 | 4.8 | 9.7 | 0.00 | 0.00 | 0.23 | 65 | 1010.2 |
| 20260505230120 | 19 | 329 | 4.8 | 8.0 | 0.00 | 0.00 | 0.23 | 65 | 1010.1 |
| 20260505225617 | 19 | 320 | 4.8 | 8.0 | 0.00 | 0.00 | 0.23 | 65 | 1010.1 |
| 20260505225118 | 20 | 311 | 4.8 | 12.9 | 0.00 | 0.00 | 0.23 | 65 | 1010.2 |
| 20260505224618 | 20 | 318 | 4.8 | 11.3 | 0.00 | 0.00 | 0.23 | 64 | 1010.3 |
| 20260505224118 | 20 | 316 | 3.2 | 6.4 | 0.00 | 0.00 | 0.23 | 63 | 1010.4 |
| 20260505223618 | 20 | 305 | 4.8 | 11.3 | 0.00 | 0.00 | 0.23 | 63 | 1010.4 |
| 20260505223117 | 20 | 298 | 6.4 | 12.9 | 0.00 | 0.00 | 0.23 | 63 | 1010.4 |
| 20260505222618 | 19 | 282 | 4.8 | 6.4 | 0.00 | 0.00 | 0.23 | 64 | 1010.4 |
| 20260505222117 | 19 | 289 | 4.8 | 8.0 | 0.00 | 0.00 | 0.23 | 63 | 1010.5 |
| 20260505221617 | 19 | 288 | 3.2 | 12.9 | 0.00 | 0.00 | 0.23 | 64 | 1010.5 |
| 20260505221118 | 19 | 282 | 6.4 | 9.7 | 0.00 | 0.00 | 0.23 | 64 | 1010.5 |
| 20260505220618 | 19 | 308 | 4.8 | 8.0 | 0.00 | 0.00 | 0.23 | 65 | 1010.5 |
| 20260505220118 | 20 | 272 | 4.8 | 6.4 | 0.00 | 0.00 | 0.23 | 64 | 1010.6 |
| 20260505215618 | 20 | 284 | 3.2 | 6.4 | 0.00 | 0.00 | 0.23 | 65 | 1010.6 |
| 20260505215117 | 20 | 275 | 8.0 | 16.1 | 0.00 | 0.00 | 0.23 | 65 | 1010.4 |
| 20260505214620 | 21 | 310 | 3.2 | 9.7 | 0.00 | 0.00 | 0.23 | 60 | 1010.4 |
| 20260505214117 | 21 | 299 | 4.8 | 6.4 | 0.00 | 0.00 | 0.23 | 57 | 1010.3 |
| 20260505213617 | 21 | 296 | 4.8 | 11.3 | 0.00 | 0.00 | 0.23 | 56 | 1010.2 |
| 20260505213119 | 21 | 45 | 3.2 | 3.2 | 0.00 | 0.00 | 0.23 | 56 | 1010.2 |
| 20260505212620 | 21 | 285 | 3.2 | 6.4 | 0.00 | 0.00 | 0.23 | 55 | 1010.0 |
| 20260505212118 | 21 | 278 | 0.0 | 0.0 | 0.00 | 0.00 | 0.23 | 56 | 1010.0 |
| 20260505211618 | 21 | 251 | 0.0 | 1.6 | 0.00 | 0.00 | 0.23 | 56 | 1009.9 |
| 20260505211120 | 21 | 272 | 4.8 | 6.4 | 0.00 | 0.00 | 0.23 | 55 | 1009.9 |
| 20260505210618 | 22 | 298 | 1.6 | 3.2 | 0.00 | 0.00 | 0.23 | 55 | 1010.0 |
| 20260505210117 | 22 | 290 | 3.2 | 6.4 | 0.00 | 0.00 | 0.23 | 55 | 1010.0 |
| 20260505205619 | 22 | 255 | 1.6 | 1.6 | 0.00 | 0.00 | 0.23 | 54 | 1010.0 |
| 20260505205118 | 21 | 282 | 3.2 | 4.8 | 0.00 | 0.00 | 0.23 | 54 | 1009.9 |
| 20260505204619 | 21 | 244 | 3.2 | 4.8 | 0.00 | 0.00 | 0.23 | 54 | 1009.9 |
| 20260505204120 | 21 | 289 | 3.2 | 8.0 | 0.00 | 0.00 | 0.23 | 54 | 1010.0 |
| 20260505203617 | 21 | 239 | 6.4 | 8.0 | 0.00 | 0.00 | 0.23 | 54 | 1010.0 |
| 20260505203119 | 21 | 243 | 3.2 | 6.4 | 0.00 | 0.00 | 0.23 | 54 | 1010.0 |
| 20260505202620 | 21 | 271 | 4.8 | 11.3 | 0.00 | 0.00 | 0.23 | 54 | 1010.1 |
| 20260505202119 | 22 | 258 | 8.0 | 17.7 | 0.00 | 0.00 | 0.23 | 54 | 1010.2 |
| 20260505201620 | 22 | 239 | 6.4 | 9.7 | 0.00 | 0.00 | 0.23 | 50 | 1010.1 |
| 20260505201119 | 22 | 226 | 3.2 | 4.8 | 0.00 | 0.00 | 0.23 | 50 | 1009.9 |
| 20260505200619 | 22 | 265 | 4.8 | 9.7 | 0.00 | 0.00 | 0.23 | 49 | 1009.9 |
| 20260505200119 | 22 | 233 | 8.0 | 12.9 | 0.00 | 0.00 | 0.23 | 49 | 1009.8 |
| 20260505195619 | 22 | 236 | 4.8 | 9.7 | 0.00 | 0.00 | 0.23 | 49 | 1010.0 |
| 20260505195120 | 22 | 201 | 8.0 | 14.5 | 0.00 | 0.00 | 0.23 | 48 | 1009.8 |
| 20260505194618 | 22 | 246 | 6.4 | 11.3 | 0.00 | 0.00 | 0.23 | 48 | 1009.9 |
| 20260505194120 | 22 | 234 | 6.4 | 11.3 | 0.00 | 0.00 | 0.23 | 48 | 1009.9 |
| 20260505193620 | 22 | 258 | 9.7 | 14.5 | 0.00 | 0.00 | 0.23 | 47 | 1009.9 |
| 20260505193119 | 23 | 236 | 4.8 | 9.7 | 0.00 | 0.00 | 0.23 | 47 | 1009.8 |
| 20260505192620 | 23 | 208 | 6.4 | 9.7 | 0.00 | 0.00 | 0.23 | 47 | 1009.8 |
| 20260505192117 | 23 | 253 | 6.4 | 11.3 | 0.00 | 0.00 | 0.23 | 47 | 1009.8 |
| 20260505191626 | 23 | 252 | 4.8 | 14.5 | 0.00 | 0.00 | 0.23 | 46 | 1009.8 |
| 20260505191117 | 23 | 182 | 4.8 | 11.3 | 0.00 | 0.00 | 0.23 | 46 | 1009.8 |
| 20260505190619 | 23 | 196 | 9.7 | 17.7 | 0.00 | 0.00 | 0.23 | 47 | 1009.8 |
| 20260505190119 | 22 | 210 | 11.3 | 20.9 | 0.00 | 0.00 | 0.23 | 47 | 1009.5 |
| 20260505185621 | 22 | 189 | 11.3 | 22.5 | 0.00 | 0.00 | 0.23 | 48 | 1009.5 |
| 20260505185120 | 22 | 194 | 11.3 | 20.9 | 0.00 | 0.00 | 0.23 | 49 | 1009.8 |
| 20260505184620 | 22 | 227 | 6.4 | 12.9 | 0.00 | 0.00 | 0.23 | 48 | 1009.8 |
| 20260505184120 | 22 | 210 | 11.3 | 16.1 | 0.00 | 0.00 | 0.23 | 50 | 1009.9 |
| 20260505183620 | 22 | 200 | 8.0 | 12.9 | 0.00 | 0.00 | 0.23 | 50 | 1009.9 |
| 20260505183120 | 22 | 206 | 4.8 | 9.7 | 0.00 | 0.00 | 0.23 | 51 | 1010.0 |
| 20260505182620 | 22 | 235 | 6.4 | 11.3 | 0.00 | 0.00 | 0.23 | 51 | 1010.0 |
| 20260505182118 | 22 | 203 | 8.0 | 14.5 | 0.00 | 0.00 | 0.23 | 53 | 1010.1 |
| 20260505181620 | 22 | 185 | 8.0 | 17.7 | 0.00 | 0.00 | 0.23 | 53 | 1010.0 |
| 20260505181122 | 22 | 216 | 11.3 | 17.7 | 0.00 | 0.00 | 0.23 | 53 | 1010.2 |
| 20260505180621 | 22 | 202 | 9.7 | 19.3 | 0.00 | 0.00 | 0.23 | 54 | 1010.3 |
| 20260505180120 | 22 | 201 | 8.0 | 17.7 | 0.00 | 0.00 | 0.23 | 54 | 1010.3 |
| 20260505175620 | 23 | 197 | 8.0 | 17.7 | 0.00 | 0.00 | 0.23 | 53 | 1010.1 |
| 20260505174637 | 22 | 201 | 6.4 | 16.1 | 0.00 | 0.00 | 0.23 | 53 | 1010.3 |
| 20260505174120 | 22 | 204 | 8.0 | 14.5 | 0.00 | 0.00 | 0.23 | 54 | 1010.4 |
| 20260505173619 | 22 | 198 | 8.0 | 17.7 | 0.00 | 0.00 | 0.23 | 54 | 1010.5 |
| 20260505173119 | 22 | 191 | 8.0 | 12.9 | 0.00 | 0.00 | 0.23 | 54 | 1010.7 |
| 20260505172620 | 22 | 202 | 6.4 | 9.7 | 0.00 | 0.00 | 0.23 | 54 | 1010.5 |
| 20260505172120 | 22 | 248 | 6.4 | 14.5 | 0.00 | 0.00 | 0.23 | 55 | 1010.5 |
| 20260505171619 | 23 | 223 | 6.4 | 16.1 | 0.00 | 0.00 | 0.23 | 54 | 1010.6 |
| 20260505171120 | 22 | 236 | 3.2 | 8.0 | 0.00 | 0.00 | 0.23 | 54 | 1010.6 |
| 20260505170620 | 22 | 220 | 4.8 | 6.4 | 0.00 | 0.00 | 0.23 | 55 | 1010.7 |
| 20260505170120 | 21 | 270 | 3.2 | 3.2 | 0.00 | 0.00 | 0.23 | 57 | 1010.7 |
| 20260505165620 | 21 | 197 | 11.3 | 17.7 | 0.00 | 0.00 | 0.23 | 56 | 1010.6 |
| 20260505165121 | 22 | 237 | 8.0 | 12.9 | 0.00 | 0.00 | 0.23 | 56 | 1010.6 |
| 20260505164620 | 22 | 250 | 3.2 | 4.8 | 0.00 | 0.00 | 0.23 | 57 | 1010.7 |
| 20260505164121 | 22 | 269 | 6.4 | 8.0 | 0.00 | 0.00 | 0.23 | 57 | 1010.7 |
| 20260505163620 | 21 | 228 | 6.4 | 9.7 | 0.00 | 0.00 | 0.23 | 58 | 1010.7 |
| 20260505163118 | 21 | 223 | 6.4 | 9.7 | 0.00 | 0.00 | 0.23 | 60 | 1010.9 |
| 20260505162620 | 21 | 229 | 6.4 | 12.9 | 0.00 | 0.00 | 0.23 | 61 | 1010.8 |
| 20260505162120 | 21 | 318 | 3.2 | 3.2 | 0.00 | 0.00 | 0.23 | 62 | 1010.9 |
| 20260505161620 | 20 | 247 | 3.2 | 3.2 | 0.00 | 0.00 | 0.23 | 62 | 1011.2 |
| 20260505161120 | 20 | 230 | 3.2 | 4.8 | 0.00 | 0.00 | 0.23 | 62 | 1011.2 |
| 20260505160617 | 21 | 257 | 6.4 | 12.9 | 0.00 | 0.00 | 0.23 | 61 | 1011.2 |
| 20260505160119 | 21 | 243 | 6.4 | 9.7 | 0.00 | 0.00 | 0.23 | 62 | 1011.3 |
| 20260505153119 | 21 | 213 | 8.0 | 11.3 | 0.00 | 0.00 | 0.23 | 62 | 1011.6 |
| 20260505152622 | 21 | 229 | 4.8 | 8.0 | 0.00 | 0.00 | 0.23 | 62 | 1011.4 |
| 20260505152120 | 21 | 207 | 6.4 | 8.0 | 0.00 | 0.00 | 0.23 | 62 | 1011.4 |
| 20260505151617 | 20 | 224 | 4.8 | 6.4 | 0.00 | 0.00 | 0.23 | 63 | 1011.3 |
| 20260505151120 | 20 | 204 | 4.8 | 9.7 | 0.00 | 0.00 | 0.23 | 64 | 1011.3 |
| 20260505150621 | 20 | 194 | 6.4 | 8.0 | 0.00 | 0.00 | 0.23 | 64 | 1011.4 |
| 20260505150120 | 20 | 175 | 6.4 | 11.3 | 0.00 | 0.00 | 0.23 | 67 | 1011.4 |
| 20260505140620 | 17 | 182 | 4.8 | 9.7 | 0.00 | 0.00 | 0.23 | 78 | 1011.3 |
| 20260505140119 | 16 | 144 | 6.4 | 8.0 | 0.00 | 0.00 | 0.23 | 79 | 1011.3 |
| 20260505130120 | 16 | 185 | 4.8 | 6.4 | 0.15 | 0.00 | 0.25 | 86 | 1011.6 |
| 20260505124618 | 16 | 258 | 6.4 | 9.7 | 0.15 | 0.00 | 0.25 | 77 | 1011.3 |
| 20260505124119 | 16 | 251 | 6.4 | 9.7 | 0.15 | 0.00 | 0.25 | 78 | 1011.4 |
| 20260505123619 | 15 | 246 | 6.4 | 12.9 | 0.15 | 0.00 | 0.23 | 80 | 1011.4 |
| 20260505123119 | 15 | 238 | 4.8 | 6.4 | 0.13 | 0.00 | 0.23 | 81 | 1011.7 |
| 20260505122619 | 15 | 249 | 3.2 | 8.0 | 0.10 | 0.00 | 0.23 | 82 | 1011.6 |
| 20260505122120 | 14 | 229 | 8.0 | 16.1 | 0.10 | 0.00 | 0.23 | 83 | 1011.6 |
| 20260505121619 | 14 | 217 | 8.0 | 14.5 | 0.08 | 0.00 | 0.23 | 84 | 1011.8 |
| 20260505121120 | 14 | 217 | 8.0 | 14.5 | 0.05 | 0.00 | 0.23 | 86 | 1011.8 |
| 20260505120620 | 14 | 196 | 12.9 | 25.7 | 0.05 | 0.00 | 0.20 | 85 | 1012.0 |
| 20260505120126 | 15 | 208 | 6.4 | 11.3 | 0.00 | 0.00 | 0.18 | 83 | 1012.1 |
| 20260505115334 | 16 | 248 | 4.8 | 8.0 | 0.00 | 0.00 | 0.15 | 81 | 1011.8 |
| 20260505114618 | 16 | 222 | 8.0 | 11.3 | 0.00 | 0.00 | 0.10 | 70 | 1011.6 |
| 20260505114118 | 16 | 218 | 6.4 | 14.5 | 0.00 | 0.00 | 0.10 | 71 | 1011.6 |
| 20260505113620 | 16 | 207 | 6.4 | 9.7 | 0.00 | 0.00 | 0.10 | 72 | 1011.4 |
| 20260505113117 | 16 | 216 | 3.2 | 6.4 | 0.00 | 0.00 | 0.10 | 70 | 1011.2 |
| 20260505112620 | 16 | 238 | 6.4 | 11.3 | 0.00 | 0.00 | 0.10 | 70 | 1011.1 |
| 20260505112121 | 16 | 223 | 6.4 | 12.9 | 0.00 | 0.00 | 0.10 | 71 | 1011.1 |
| 20260505111618 | 15 | 194 | 9.7 | 11.3 | 0.00 | 0.00 | 0.10 | 72 | 1011.1 |
| 20260505111119 | 15 | 215 | 6.4 | 11.3 | 0.00 | 0.00 | 0.10 | 72 | 1011.0 |
| 20260505110620 | 15 | 210 | 4.8 | 6.4 | 0.00 | 0.00 | 0.10 | 72 | 1011.0 |
| 20260505110121 | 15 | 223 | 4.8 | 9.7 | 0.00 | 0.00 | 0.13 | 74 | 1011.1 |
| 20260505102119 | 15 | 184 | 6.4 | 11.3 | 0.00 | 0.00 | 0.05 | 76 | 1010.9 |
| 20260505101619 | 15 | 232 | 1.6 | 3.2 | 0.05 | 0.00 | 0.05 | 76 | 1011.0 |
| 20260505101117 | 15 | 197 | 3.2 | 6.4 | 0.05 | 0.00 | 0.05 | 76 | 1011.0 |
| 20260505100619 | 15 | 242 | 3.2 | 6.4 | 0.05 | 0.00 | 0.05 | 76 | 1011.1 |
| 20260505100119 | 15 | 254 | 1.6 | 3.2 | 0.05 | 0.00 | 0.05 | 74 | 1011.1 |
| 20260505095617 | 15 | 241 | 4.8 | 9.7 | 0.05 | 0.00 | 0.05 | 74 | 1011.0 |
| 20260505095119 | 15 | 229 | 8.0 | 11.3 | 0.05 | 0.00 | 0.05 | 76 | 1011.0 |
| 20260505094619 | 15 | 222 | 6.4 | 12.9 | 0.05 | 0.00 | 0.05 | 75 | 1011.0 |
| 20260505094119 | 14 | 216 | 4.8 | 9.7 | 0.05 | 0.00 | 0.05 | 79 | 1010.9 |
| 20260505093617 | 13 | 189 | 9.7 | 12.9 | 0.05 | 0.00 | 0.05 | 78 | 1010.8 |
| 20260505093117 | 13 | 159 | 6.4 | 9.7 | 0.05 | 0.00 | 0.05 | 81 | 1010.7 |
| 20260505092620 | 13 | 186 | 8.0 | 12.9 | 0.20 | 0.00 | 0.05 | 81 | 1010.6 |
| 20260505092118 | 13 | 182 | 9.7 | 11.3 | 0.20 | 0.00 | 0.20 | 84 | 1010.7 |
| 20260505091619 | 13 | 162 | 9.7 | 14.5 | 0.20 | 0.00 | 0.20 | 85 | 1010.6 |
| 20260505091120 | 13 | 147 | 12.9 | 16.1 | 0.20 | 0.00 | 0.20 | 86 | 1010.4 |
| 20260505090619 | 14 | 160 | 8.0 | 11.3 | 0.00 | 0.00 | 0.00 | 75 | 1010.5 |
| 20260505090119 | 14 | 151 | 6.4 | 12.9 | 0.00 | 0.00 | 0.00 | 75 | 1010.4 |
| 20260505085620 | 15 | 179 | 8.0 | 11.3 | 0.00 | 0.00 | 0.00 | 74 | 1010.4 |
| 20260505085118 | 15 | 160 | 8.0 | 11.3 | 0.00 | 0.00 | 0.00 | 74 | 1010.5 |
| 20260505084617 | 15 | 144 | 6.4 | 11.3 | 0.00 | 0.00 | 0.00 | 74 | 1010.5 |
| 20260505084118 | 15 | 156 | 9.7 | 12.9 | 0.00 | 0.00 | 0.00 | 74 | 1010.5 |
| 20260505083617 | 15 | 168 | 9.7 | 11.3 | 0.00 | 0.00 | 0.00 | 74 | 1010.5 |
| 20260505083119 | 15 | 185 | 9.7 | 14.5 | 0.00 | 0.00 | 0.00 | 74 | 1010.5 |
| 20260505082619 | 15 | 158 | 6.4 | 9.7 | 0.00 | 0.00 | 0.00 | 74 | 1010.5 |
| 20260505082119 | 15 | 157 | 4.8 | 6.4 | 0.00 | 0.00 | 0.00 | 74 | 1010.5 |
| 20260505081617 | 15 | 157 | 6.4 | 9.7 | 0.00 | 0.00 | 0.00 | 73 | 1010.5 |
| 20260505081120 | 15 | 172 | 8.0 | 12.9 | 0.00 | 0.00 | 0.00 | 73 | 1010.5 |
| 20260505080618 | 15 | 161 | 8.0 | 11.3 | 0.00 | 0.00 | 0.00 | 72 | 1010.5 |
| 20260505080118 | 15 | 153 | 6.4 | 9.7 | 0.00 | 0.00 | 0.00 | 72 | 1010.5 |
| 20260505075617 | 15 | 140 | 9.7 | 14.5 | 0.00 | 0.00 | 0.00 | 72 | 1010.4 |
| 20260505075119 | 15 | 132 | 9.7 | 14.5 | 0.00 | 0.00 | 0.00 | 73 | 1010.4 |
| 20260505074621 | 15 | 139 | 4.8 | 6.4 | 0.00 | 0.00 | 0.00 | 73 | 1010.4 |
| 20260505074119 | 15 | 132 | 8.0 | 9.7 | 0.00 | 0.00 | 0.00 | 73 | 1010.3 |
| 20260505073620 | 15 | 138 | 6.4 | 9.7 | 0.00 | 0.00 | 0.00 | 72 | 1010.4 |
| 20260505073117 | 15 | 150 | 6.4 | 8.0 | 0.00 | 0.00 | 0.00 | 72 | 1010.3 |
| 20260505072617 | 14 | 146 | 9.7 | 14.5 | 0.00 | 0.00 | 0.00 | 73 | 1010.2 |
| 20260505072119 | 15 | 134 | 4.8 | 6.4 | 0.00 | 0.00 | 0.00 | 73 | 1010.3 |
| 20260505071618 | 15 | 131 | 8.0 | 9.7 | 0.00 | 0.00 | 0.00 | 71 | 1010.3 |
| 20260505071120 | 15 | 157 | 4.8 | 8.0 | 0.00 | 0.00 | 0.00 | 71 | 1010.3 |
| 20260505070619 | 15 | 164 | 6.4 | 11.3 | 0.00 | 0.00 | 0.00 | 71 | 1010.3 |
| 20260505070120 | 15 | 188 | 8.0 | 12.9 | 0.00 | 0.00 | 0.00 | 71 | 1010.3 |
| 20260505065617 | 15 | 189 | 4.8 | 9.7 | 0.00 | 0.00 | 0.00 | 74 | 1010.3 |
| 20260505065119 | 16 | 256 | 3.2 | 4.8 | 0.00 | 0.00 | 0.00 | 76 | 1010.4 |
| 20260505064619 | 16 | 218 | 6.4 | 8.0 | 0.00 | 0.00 | 0.00 | 70 | 1010.4 |
| 20260505064117 | 16 | 194 | 9.7 | 12.9 | 0.00 | 0.00 | 0.00 | 69 | 1010.4 |
| 20260505063617 | 16 | 184 | 6.4 | 8.0 | 0.00 | 0.00 | 0.00 | 69 | 1010.4 |
| 20260505063117 | 15 | 173 | 8.0 | 11.3 | 0.00 | 0.00 | 0.00 | 70 | 1010.4 |
| 20260505062619 | 15 | 188 | 8.0 | 11.3 | 0.00 | 0.00 | 0.00 | 70 | 1010.4 |
| 20260505062117 | 15 | 183 | 6.4 | 11.3 | 0.00 | 0.00 | 0.00 | 69 | 1010.5 |
| 20260505061618 | 16 | 167 | 9.7 | 11.3 | 0.00 | 0.00 | 0.00 | 69 | 1010.5 |
| 20260505061117 | 16 | 186 | 8.0 | 12.9 | 0.00 | 0.00 | 0.00 | 69 | 1010.5 |
| 20260505060618 | 16 | 207 | 4.8 | 9.7 | 0.00 | 0.00 | 0.00 | 68 | 1010.5 |
| 20260505060121 | 16 | 208 | 8.0 | 11.3 | 0.00 | 0.00 | 0.00 | 68 | 1010.6 |
| 20260505055617 | 16 | 200 | 6.4 | 11.3 | 0.00 | 0.00 | 0.00 | 67 | 1010.6 |
| 20260505055117 | 16 | 216 | 4.8 | 9.7 | 0.00 | 0.00 | 0.00 | 67 | 1010.6 |
| 20260505054617 | 16 | 237 | 4.8 | 11.3 | 0.00 | 0.00 | 0.00 | 67 | 1010.7 |
| 20260505054118 | 16 | 227 | 4.8 | 8.0 | 0.00 | 0.00 | 0.00 | 67 | 1010.7 |
| 20260505053617 | 16 | 221 | 6.4 | 12.9 | 0.00 | 0.00 | 0.00 | 68 | 1010.7 |
| 20260505053117 | 16 | 223 | 3.2 | 4.8 | 0.00 | 0.00 | 0.00 | 67 | 1010.8 |
| 20260505052617 | 16 | 190 | 6.4 | 8.0 | 0.00 | 0.00 | 0.00 | 67 | 1010.8 |
| 20260505052118 | 16 | 163 | 6.4 | 14.5 | 0.00 | 0.00 | 0.00 | 67 | 1010.9 |
| 20260505051617 | 16 | 225 | 4.8 | 9.7 | 0.00 | 0.00 | 0.00 | 67 | 1010.9 |
| 20260505051117 | 16 | 239 | 6.4 | 9.7 | 0.00 | 0.00 | 0.00 | 66 | 1010.9 |
| 20260505050618 | 16 | 233 | 4.8 | 9.7 | 0.00 | 0.00 | 0.00 | 66 | 1010.9 |
| 20260505050117 | 16 | 190 | 6.4 | 12.9 | 0.00 | 0.00 | 0.00 | 66 | 1010.8 |
| 20260505041618 | 16 | 164 | 8.0 | 11.3 | 0.00 | 0.00 | 0.00 | 64 | 1010.8 |
| 20260505041117 | 16 | 175 | 4.8 | 9.7 | 0.00 | 0.00 | 0.00 | 64 | 1010.8 |
| 20260505040617 | 16 | 159 | 6.4 | 11.3 | 0.00 | 0.00 | 0.00 | 64 | 1010.7 |
| 20260505040117 | 16 | 198 | 4.8 | 8.0 | 0.00 | 0.00 | 0.00 | 64 | 1010.6 |
| 20260505035617 | 16 | 172 | 9.7 | 14.5 | 0.00 | 0.00 | 0.00 | 64 | 1010.6 |
| 20260505035118 | 16 | 165 | 8.0 | 9.7 | 0.00 | 0.00 | 0.00 | 64 | 1010.7 |
| 20260505034619 | 16 | 162 | 9.7 | 11.3 | 0.00 | 0.00 | 0.00 | 64 | 1010.6 |
| 20260505034127 | 16 | 159 | 6.4 | 9.7 | 0.00 | 0.00 | 0.00 | 63 | 1010.5 |
| 20260505033618 | 16 | 169 | 6.4 | 8.0 | 0.00 | 0.00 | 0.00 | 63 | 1010.5 |
| 20260505033118 | 16 | 170 | 8.0 | 12.9 | 0.00 | 0.00 | 0.00 | 63 | 1010.5 |
| 20260505032618 | 16 | 154 | 9.7 | 12.9 | 0.00 | 0.00 | 0.00 | 63 | 1010.4 |
| 20260505032118 | 16 | 163 | 8.0 | 11.3 | 0.00 | 0.00 | 0.00 | 63 | 1010.5 |
| 20260505031618 | 16 | 150 | 9.7 | 14.5 | 0.00 | 0.00 | 0.00 | 63 | 1010.4 |
| 20260505031118 | 16 | 154 | 8.0 | 11.3 | 0.00 | 0.00 | 0.00 | 62 | 1010.4 |
| 20260505030617 | 16 | 161 | 9.7 | 14.5 | 0.00 | 0.00 | 0.00 | 62 | 1010.6 |
| 20260505030120 | 16 | 156 | 9.7 | 12.9 | 0.00 | 0.00 | 0.00 | 62 | 1010.5 |
| 20260505025620 | 16 | 156 | 11.3 | 14.5 | 0.00 | 0.00 | 0.00 | 62 | 1010.5 |
| 20260505025119 | 16 | 156 | 11.3 | 14.5 | 0.00 | 0.00 | 0.00 | 62 | 1010.5 |
| 20260505024617 | 16 | 159 | 9.7 | 17.7 | 0.00 | 0.00 | 0.00 | 62 | 1010.5 |
| 20260505024117 | 16 | 160 | 9.7 | 14.5 | 0.00 | 0.00 | 0.00 | 62 | 1010.6 |
| 20260505023617 | 16 | 161 | 12.9 | 16.1 | 0.00 | 0.00 | 0.00 | 62 | 1010.6 |
| 20260505023120 | 16 | 153 | 12.9 | 14.5 | 0.00 | 0.00 | 0.00 | 62 | 1010.4 |
| 20260505022620 | 16 | 157 | 11.3 | 14.5 | 0.00 | 0.00 | 0.00 | 62 | 1010.5 |
| 20260505022119 | 16 | 151 | 11.3 | 14.5 | 0.00 | 0.00 | 0.00 | 61 | 1010.6 |
| 20260505021617 | 16 | 153 | 9.7 | 14.5 | 0.00 | 0.00 | 0.00 | 61 | 1010.6 |
| 20260505021119 | 16 | 148 | 9.7 | 14.5 | 0.00 | 0.00 | 0.00 | 61 | 1010.8 |
| 20260505020621 | 16 | 152 | 8.0 | 9.7 | 0.00 | 0.00 | 0.00 | 61 | 1010.9 |
| 20260505020118 | 16 | 159 | 11.3 | 14.5 | 0.00 | 0.00 | 0.00 | 61 | 1011.0 |
| 20260505015617 | 16 | 161 | 9.7 | 14.5 | 0.00 | 0.00 | 0.00 | 61 | 1011.0 |
| 20260505015117 | 16 | 161 | 11.3 | 14.5 | 0.00 | 0.00 | 0.00 | 62 | 1010.9 |
| 20260505014618 | 16 | 156 | 9.7 | 14.5 | 0.00 | 0.00 | 0.00 | 62 | 1010.8 |
| 20260505014117 | 16 | 150 | 11.3 | 14.5 | 0.00 | 0.00 | 0.00 | 62 | 1010.6 |
| 20260505013617 | 16 | 159 | 11.3 | 14.5 | 0.00 | 0.00 | 0.00 | 62 | 1010.7 |
| 20260505013117 | 17 | 148 | 11.3 | 14.5 | 0.00 | 0.00 | 0.00 | 61 | 1010.7 |
| 20260505012617 | 17 | 158 | 9.7 | 12.9 | 0.00 | 0.00 | 0.00 | 60 | 1010.7 |
| 20260505012117 | 17 | 157 | 8.0 | 12.9 | 0.00 | 0.00 | 0.00 | 60 | 1010.7 |
| 20260505011618 | 17 | 166 | 9.7 | 14.5 | 0.00 | 0.00 | 0.00 | 59 | 1010.7 |
| 20260505011117 | 17 | 173 | 12.9 | 16.1 | 0.00 | 0.00 | 0.00 | 59 | 1010.7 |
| 20260505010617 | 17 | 170 | 6.4 | 12.9 | 0.00 | 0.00 | 0.00 | 59 | 1010.6 |
| 20260505010119 | 17 | 173 | 6.4 | 11.3 | 0.00 | 0.00 | 0.00 | 59 | 1010.7 |
| 20260505005619 | 17 | 178 | 8.0 | 14.5 | 0.00 | 0.00 | 0.00 | 59 | 1010.6 |
| 20260505005119 | 17 | 178 | 6.4 | 9.7 | 0.00 | 0.00 | 0.00 | 59 | 1010.5 |
| 20260505004617 | 17 | 189 | 4.8 | 11.3 | 0.00 | 0.00 | 0.00 | 59 | 1010.5 |
| 20260505004119 | 17 | 166 | 6.4 | 9.7 | 0.00 | 0.00 | 0.00 | 59 | 1010.5 |
| 20260505003617 | 17 | 180 | 6.4 | 9.7 | 0.00 | 0.00 | 0.00 | 59 | 1010.4 |
| 20260505003117 | 17 | 191 | 11.3 | 16.1 | 0.00 | 0.00 | 0.00 | 58 | 1010.4 |